| time (UTC) | temp C | wind direction | speed KPH | gust KPH | rain 1hr cm | rain 24hr cm | rain mn cm | humidity % | barometer mb |
| 20260903192616 | 13 | 248 | 6.4 | 11.3 | 0.25 | 1.35 | 0.69 | 76 | 1012.1 |
| 20260903191616 | 13 | 270 | 3.2 | 6.4 | 0.25 | 1.37 | 0.69 | 78 | 1012.0 |
| 20260903190635 | 13 | 135 | 3.2 | 6.4 | 0.25 | 1.40 | 0.69 | 77 | 1012.1 |
| 20260903185616 | 14 | 293 | 8.0 | 14.5 | 0.20 | 1.37 | 0.64 | 75 | 1012.1 |
| 20260903184615 | 15 | 203 | 3.2 | 3.2 | 0.00 | 1.22 | 0.43 | 72 | 1011.9 |
| 20260903183616 | 15 | 90 | 3.2 | 3.2 | 0.00 | 1.27 | 0.43 | 74 | 1011.9 |
| 20260903182615 | 15 | 68 | 3.2 | 4.8 | 0.00 | 1.32 | 0.43 | 76 | 1011.9 |
| 20260903181615 | 15 | 135 | 4.8 | 4.8 | 0.00 | 1.37 | 0.43 | 79 | 1012.0 |
| 20260903180616 | 15 | 90 | 3.2 | 4.8 | 0.00 | 1.45 | 0.43 | 79 | 1012.2 |
| 20260903175616 | 15 | 113 | 1.6 | 3.2 | 0.00 | 1.47 | 0.43 | 81 | 1012.1 |
| 20260903174615 | 14 | 0.0 | 3.2 | 0.00 | 1.52 | 0.43 | 84 | 1012.1 | |
| 20260903173615 | 13 | 113 | 3.2 | 4.8 | 0.00 | 1.55 | 0.43 | 84 | 1012.0 |
| 20260903172615 | 13 | 0.0 | 1.6 | 0.00 | 1.55 | 0.43 | 84 | 1012.0 | |
| 20260903171615 | 12 | 135 | 3.2 | 4.8 | 0.05 | 1.55 | 0.43 | 83 | 1012.3 |
| 20260903170616 | 12 | 90 | 1.6 | 4.8 | 0.10 | 1.55 | 0.43 | 84 | 1012.1 |
| 20260903165615 | 12 | 90 | 4.8 | 9.7 | 0.13 | 1.55 | 0.43 | 83 | 1012.2 |
| 20260903164636 | 12 | 90 | 3.2 | 6.4 | 0.15 | 1.55 | 0.43 | 83 | 1012.2 |
| 20260903163655 | 11 | 90 | 4.8 | 6.4 | 0.15 | 1.55 | 0.43 | 83 | 1012.2 |
| 20260903162635 | 11 | 158 | 4.8 | 6.4 | 0.15 | 1.55 | 0.43 | 83 | 1012.4 |
| 20260903161615 | 11 | 113 | 4.8 | 6.4 | 0.10 | 1.50 | 0.38 | 83 | 1012.3 |
| 20260903160635 | 11 | 135 | 1.6 | 3.2 | 0.08 | 1.45 | 0.33 | 82 | 1012.4 |
| 20260903155615 | 11 | 135 | 3.2 | 4.8 | 0.05 | 1.42 | 0.30 | 82 | 1012.4 |
| 20260903154615 | 11 | 113 | 1.6 | 3.2 | 0.05 | 1.40 | 0.28 | 82 | 1012.4 |
| 20260903153615 | 11 | 113 | 1.6 | 3.2 | 0.10 | 1.40 | 0.28 | 82 | 1012.2 |
| 20260903152615 | 11 | 135 | 3.2 | 3.2 | 0.13 | 1.40 | 0.28 | 81 | 1012.3 |
| 20260903151615 | 11 | 113 | 1.6 | 3.2 | 0.13 | 1.40 | 0.28 | 81 | 1012.3 |
| 20260903150615 | 11 | 135 | 6.4 | 11.3 | 0.10 | 1.37 | 0.25 | 81 | 1012.1 |
| 20260903145637 | 11 | 135 | 3.2 | 4.8 | 0.15 | 1.37 | 0.25 | 81 | 1012.2 |
| 20260903144615 | 11 | 135 | 3.2 | 11.3 | 0.18 | 1.35 | 0.23 | 81 | 1012.2 |
| 20260903143615 | 11 | 113 | 4.8 | 9.7 | 0.13 | 1.30 | 0.18 | 81 | 1012.0 |
| 20260903142615 | 11 | 135 | 1.6 | 3.2 | 0.10 | 1.27 | 0.15 | 80 | 1011.7 |
| 20260903141615 | 11 | 158 | 1.6 | 3.2 | 0.13 | 1.27 | 0.15 | 79 | 1011.6 |
| 20260903140615 | 11 | 135 | 3.2 | 6.4 | 0.13 | 1.27 | 0.15 | 79 | 1011.7 |
| 20260903135617 | 11 | 158 | 3.2 | 4.8 | 0.08 | 1.22 | 0.10 | 79 | 1011.6 |
| 20260903134615 | 11 | 158 | 1.6 | 3.2 | 0.03 | 1.17 | 0.05 | 79 | 1011.5 |
| 20260903133617 | 11 | 135 | 1.6 | 3.2 | 0.03 | 1.17 | 0.05 | 78 | 1011.5 |
| 20260903132617 | 11 | 135 | 1.6 | 3.2 | 0.03 | 1.17 | 0.05 | 78 | 1011.5 |
| 20260903131617 | 11 | 0.0 | 1.6 | 0.00 | 1.14 | 0.03 | 77 | 1011.5 | |
| 20260903130617 | 11 | 113 | 1.6 | 4.8 | 0.00 | 1.14 | 0.03 | 76 | 1011.4 |
| 20260903125617 | 11 | 113 | 3.2 | 6.4 | 0.00 | 1.14 | 0.03 | 76 | 1011.3 |
| 20260903124617 | 11 | 113 | 1.6 | 4.8 | 0.00 | 1.14 | 0.03 | 76 | 1011.4 |
| 20260903123618 | 11 | 113 | 1.6 | 3.2 | 0.00 | 1.14 | 0.03 | 76 | 1011.4 |
| 20260903122637 | 11 | 135 | 4.8 | 6.4 | 0.00 | 1.14 | 0.03 | 76 | 1011.4 |
| 20260903121617 | 11 | 135 | 3.2 | 4.8 | 0.00 | 1.14 | 0.03 | 75 | 1011.5 |
| 20260903120617 | 11 | 135 | 1.6 | 3.2 | 0.00 | 1.14 | 0.03 | 76 | 1011.6 |
| 20260903115657 | 11 | 135 | 4.8 | 8.0 | 0.00 | 1.14 | 0.03 | 76 | 1011.5 |
| 20260903114617 | 11 | 135 | 4.8 | 8.0 | 0.00 | 1.14 | 0.03 | 76 | 1011.6 |
| 20260903113617 | 11 | 135 | 4.8 | 8.0 | 0.00 | 1.14 | 0.03 | 77 | 1011.6 |
| 20260903112617 | 11 | 135 | 4.8 | 8.0 | 0.00 | 1.14 | 0.03 | 78 | 1011.4 |
| 20260903111617 | 11 | 113 | 3.2 | 6.4 | 0.00 | 1.14 | 0.03 | 79 | 1011.6 |
| 20260903110617 | 11 | 158 | 3.2 | 4.8 | 0.00 | 1.14 | 0.03 | 81 | 1011.5 |
| 20260903105617 | 11 | 135 | 4.8 | 8.0 | 0.00 | 1.14 | 0.03 | 82 | 1011.5 |
| 20260903104616 | 11 | 135 | 3.2 | 4.8 | 0.00 | 1.14 | 0.03 | 81 | 1011.5 |
| 20260903103617 | 11 | 135 | 3.2 | 4.8 | 0.00 | 1.14 | 0.03 | 82 | 1011.7 |
| 20260903102636 | 11 | 135 | 3.2 | 6.4 | 0.00 | 1.14 | 0.03 | 82 | 1011.6 |
| 20260903101617 | 12 | 135 | 1.6 | 3.2 | 0.00 | 1.14 | 0.03 | 82 | 1011.5 |
| 20260903100636 | 12 | 135 | 3.2 | 4.8 | 0.00 | 1.14 | 0.03 | 82 | 1011.4 |
| 20260903095637 | 12 | 90 | 3.2 | 6.4 | 0.00 | 1.14 | 0.03 | 82 | 1011.3 |
| 20260903094637 | 12 | 113 | 1.6 | 3.2 | 0.00 | 1.14 | 0.03 | 82 | 1011.4 |
| 20260903093637 | 12 | 113 | 3.2 | 4.8 | 0.00 | 1.14 | 0.03 | 82 | 1011.4 |
| 20260903092617 | 12 | 135 | 1.6 | 3.2 | 0.00 | 1.14 | 0.03 | 82 | 1011.5 |
| 20260903091616 | 12 | 158 | 1.6 | 3.2 | 0.00 | 1.14 | 0.03 | 81 | 1011.5 |
| 20260903090616 | 12 | 113 | 3.2 | 4.8 | 0.03 | 1.14 | 0.03 | 81 | 1011.5 |
| 20260903085617 | 12 | 90 | 1.6 | 3.2 | 0.03 | 1.14 | 0.03 | 80 | 1011.4 |
| 20260903084616 | 12 | 135 | 1.6 | 3.2 | 0.03 | 1.14 | 0.03 | 80 | 1011.5 |
| 20260903083617 | 12 | 90 | 3.2 | 4.8 | 0.03 | 1.14 | 0.03 | 80 | 1011.6 |
| 20260903082616 | 12 | 158 | 1.6 | 3.2 | 0.03 | 1.14 | 0.03 | 78 | 1011.6 |
| 20260903081617 | 12 | 135 | 1.6 | 3.2 | 0.03 | 1.14 | 0.03 | 78 | 1011.8 |
| 20260903080616 | 12 | 158 | 3.2 | 4.8 | 0.00 | 1.12 | 0.00 | 78 | 1011.8 |
| 20260903075638 | 12 | 135 | 4.8 | 8.0 | 0.00 | 1.12 | 0.00 | 78 | 1011.7 |
| 20260903074616 | 12 | 158 | 4.8 | 8.0 | 0.00 | 1.12 | 0.00 | 77 | 1011.7 |
| 20260903073617 | 12 | 135 | 8.0 | 12.9 | 0.03 | 1.12 | 0.00 | 78 | 1011.7 |
| 20260903072616 | 12 | 158 | 6.4 | 12.9 | 0.03 | 1.12 | 0.00 | 77 | 1011.5 |
| 20260903065617 | 12 | 158 | 1.6 | 3.2 | 0.03 | 1.12 | 1.12 | 77 | 1011.6 |
| 20260903064617 | 12 | 225 | 3.2 | 8.0 | 0.03 | 1.12 | 1.12 | 77 | 1011.5 |
| 20260903063617 | 12 | 203 | 3.2 | 8.0 | 0.00 | 1.09 | 1.09 | 77 | 1011.5 |
| 20260903062637 | 12 | 180 | 3.2 | 6.4 | 0.00 | 1.09 | 1.09 | 77 | 1011.6 |
| 20260903061617 | 12 | 180 | 3.2 | 6.4 | 0.00 | 1.09 | 1.09 | 79 | 1011.6 |
| 20260903060617 | 12 | 158 | 3.2 | 4.8 | 0.00 | 1.09 | 1.09 | 81 | 1011.5 |
| 20260903055617 | 12 | 135 | 4.8 | 8.0 | 0.00 | 1.09 | 1.09 | 81 | 1011.5 |
| 20260903054617 | 12 | 158 | 3.2 | 6.4 | 0.00 | 1.09 | 1.09 | 82 | 1011.7 |
| 20260903053617 | 12 | 158 | 4.8 | 12.9 | 0.00 | 1.09 | 1.09 | 82 | 1011.7 |
| 20260903052637 | 12 | 135 | 6.4 | 8.0 | 0.00 | 1.09 | 1.09 | 82 | 1011.7 |
| 20260903051617 | 12 | 135 | 1.6 | 3.2 | 0.00 | 1.09 | 1.09 | 82 | 1011.6 |
| 20260903050617 | 12 | 158 | 6.4 | 12.9 | 0.00 | 1.09 | 1.09 | 82 | 1011.6 |
| 20260903045617 | 12 | 158 | 4.8 | 8.0 | 0.00 | 1.09 | 1.09 | 83 | 1011.6 |
| 20260903044617 | 12 | 135 | 4.8 | 8.0 | 0.00 | 1.09 | 1.09 | 83 | 1011.4 |
| 20260903043617 | 12 | 180 | 4.8 | 11.3 | 0.00 | 1.09 | 1.09 | 83 | 1011.2 |
| 20260903042616 | 13 | 158 | 6.4 | 8.0 | 0.00 | 1.09 | 1.09 | 83 | 1011.2 |
| 20260903041616 | 13 | 180 | 4.8 | 9.7 | 0.00 | 1.09 | 1.09 | 83 | 1011.1 |
| 20260903040617 | 13 | 158 | 3.2 | 4.8 | 0.00 | 1.09 | 1.09 | 83 | 1011.0 |
| 20260903035617 | 13 | 180 | 3.2 | 6.4 | 0.00 | 1.09 | 1.09 | 83 | 1010.9 |
| 20260903034616 | 13 | 158 | 4.8 | 8.0 | 0.00 | 1.09 | 1.09 | 83 | 1010.8 |
| 20260903033617 | 13 | 135 | 6.4 | 8.0 | 0.00 | 1.09 | 1.09 | 83 | 1010.7 |
| 20260903032637 | 13 | 135 | 4.8 | 6.4 | 0.00 | 1.09 | 1.09 | 83 | 1010.7 |
| 20260903031616 | 13 | 158 | 8.0 | 14.5 | 0.00 | 1.09 | 1.09 | 83 | 1010.6 |
| 20260903030616 | 13 | 158 | 3.2 | 6.4 | 0.00 | 1.09 | 1.09 | 83 | 1010.4 |
| 20260903025616 | 13 | 135 | 4.8 | 8.0 | 0.00 | 1.09 | 1.09 | 83 | 1010.3 |
| 20260903024616 | 13 | 135 | 4.8 | 6.4 | 0.00 | 1.09 | 1.09 | 83 | 1010.1 |
| 20260903023616 | 13 | 158 | 4.8 | 9.7 | 0.00 | 1.09 | 1.09 | 83 | 1010.2 |
| 20260903022617 | 13 | 180 | 6.4 | 14.5 | 0.00 | 1.09 | 1.09 | 83 | 1010.1 |
| 20260903021636 | 13 | 135 | 4.8 | 8.0 | 0.00 | 1.09 | 1.09 | 83 | 1010.1 |
| 20260903020617 | 13 | 158 | 3.2 | 6.4 | 0.00 | 1.09 | 1.09 | 83 | 1009.8 |
| 20260903015637 | 13 | 158 | 4.8 | 9.7 | 0.00 | 1.09 | 1.09 | 83 | 1009.8 |
| 20260903014617 | 13 | 135 | 4.8 | 9.7 | 0.03 | 1.09 | 1.09 | 83 | 1009.7 |
| 20260903013636 | 13 | 135 | 4.8 | 4.8 | 0.03 | 1.09 | 1.09 | 83 | 1009.7 |
| 20260903012616 | 13 | 158 | 1.6 | 1.6 | 0.03 | 1.09 | 1.09 | 83 | 1009.6 |
| 20260903011616 | 14 | 135 | 6.4 | 8.0 | 0.03 | 1.09 | 1.09 | 83 | 1009.5 |
| 20260903010616 | 14 | 180 | 3.2 | 6.4 | 0.03 | 1.09 | 1.09 | 83 | 1009.5 |
| 20260903005657 | 14 | 158 | 1.6 | 6.4 | 0.03 | 1.09 | 1.09 | 83 | 1009.4 |
| 20260903004616 | 14 | 135 | 6.4 | 11.3 | 0.00 | 1.07 | 1.07 | 83 | 1009.2 |
| 20260903003616 | 14 | 135 | 4.8 | 6.4 | 0.00 | 1.07 | 1.07 | 83 | 1009.2 |
| 20260903002617 | 14 | 158 | 1.6 | 4.8 | 0.00 | 1.07 | 1.07 | 83 | 1009.2 |
| 20260903001616 | 14 | 158 | 3.2 | 4.8 | 0.03 | 1.07 | 1.07 | 83 | 1009.1 |
| 20260903000616 | 14 | 180 | 3.2 | 9.7 | 0.05 | 1.07 | 1.07 | 83 | 1009.1 |
| 20260902235616 | 14 | 158 | 3.2 | 6.4 | 0.10 | 1.07 | 1.07 | 83 | 1009.1 |
| 20260902234616 | 14 | 180 | 3.2 | 3.2 | 0.10 | 1.07 | 1.07 | 83 | 1009.2 |
| 20260902233616 | 13 | 203 | 3.2 | 4.8 | 0.10 | 1.07 | 1.07 | 83 | 1009.1 |
| 20260902232636 | 13 | 203 | 3.2 | 6.4 | 0.10 | 1.07 | 1.07 | 83 | 1009.1 |
| 20260902231617 | 14 | 203 | 3.2 | 8.0 | 0.08 | 1.04 | 1.04 | 83 | 1009.0 |
| 20260902230616 | 14 | 135 | 4.8 | 8.0 | 0.05 | 1.02 | 1.02 | 83 | 1008.9 |
| 20260902225616 | 14 | 135 | 3.2 | 4.8 | 0.00 | 0.97 | 0.97 | 84 | 1008.9 |
| 20260902224616 | 14 | 158 | 3.2 | 6.4 | 0.03 | 0.97 | 0.97 | 83 | 1008.8 |
| 20260902223616 | 14 | 0.0 | 1.6 | 0.03 | 0.97 | 0.97 | 83 | 1008.8 | |
| 20260902222616 | 13 | 135 | 3.2 | 4.8 | 0.03 | 0.97 | 0.97 | 83 | 1008.9 |
| 20260902221616 | 13 | 90 | 4.8 | 9.7 | 0.05 | 0.97 | 0.97 | 83 | 1008.9 |
| 20260902220616 | 14 | 90 | 3.2 | 6.4 | 0.08 | 0.97 | 0.97 | 83 | 1008.8 |
| 20260902215616 | 14 | 90 | 3.2 | 4.8 | 0.10 | 0.97 | 0.97 | 83 | 1008.9 |
| 20260902214636 | 14 | 68 | 3.2 | 8.0 | 0.10 | 0.94 | 0.94 | 83 | 1008.7 |
| 20260902213616 | 14 | 158 | 3.2 | 4.8 | 0.15 | 0.94 | 0.94 | 83 | 1008.8 |
| 20260902212616 | 13 | 113 | 4.8 | 9.7 | 0.23 | 0.94 | 0.94 | 83 | 1008.7 |
| 20260902211616 | 13 | 135 | 4.8 | 8.0 | 0.25 | 0.91 | 0.91 | 82 | 1008.8 |
| 20260902210616 | 13 | 113 | 1.6 | 4.8 | 0.28 | 0.89 | 0.89 | 82 | 1008.7 |
| 20260902205616 | 13 | 90 | 3.2 | 6.4 | 0.33 | 0.86 | 0.86 | 81 | 1008.6 |
| 20260902204616 | 13 | 113 | 4.8 | 6.4 | 0.33 | 0.84 | 0.84 | 80 | 1008.4 |
| 20260902203615 | 13 | 90 | 6.4 | 12.9 | 0.30 | 0.79 | 0.79 | 80 | 1008.2 |
| 20260902202616 | 13 | 90 | 4.8 | 6.4 | 0.25 | 0.71 | 0.71 | 78 | 1008.3 |
| 20260902201616 | 13 | 90 | 1.6 | 3.2 | 0.23 | 0.66 | 0.66 | 78 | 1008.4 |
| 20260902200616 | 13 | 68 | 3.2 | 4.8 | 0.20 | 0.61 | 0.61 | 78 | 1008.5 |
| 20260902195616 | 14 | 90 | 4.8 | 11.3 | 0.15 | 0.53 | 0.53 | 78 | 1008.4 |
| 20260902194615 | 14 | 90 | 3.2 | 4.8 | 0.18 | 0.51 | 0.51 | 77 | 1008.5 |
| 20260902193615 | 14 | 90 | 4.8 | 9.7 | 0.20 | 0.48 | 0.48 | 75 | 1008.7 |